Regional Weather Roundup
Issued by NWS Upton, NY

Current Version | Previous Version | Text Only | Print | Product List | Glossary On
Versions: 1 2 3 4 5 6 7 8 9 10 11 12 13 14 15 16 17 18 19 20 21 22 23 24 25 26 27
000
ASUS41 KOKX 270409
RWROKX

REGIONAL WEATHER ROUNDUP
NATIONAL WEATHER SERVICE NEW YORK NY
1200 AM EDT SAT MAY 27 2017

NOTE: "FAIR" INDICATES FEW OR NO CLOUDS BELOW 12,000 FEET WITH NO
SIGNIFICANT WEATHER AND/OR OBSTRUCTIONS TO VISIBILITY.

NYZ071-072-176-178-NJZ106-104-270500-
NEW YORK CITY METRO AREA

CITY           SKY/WX    TMP DP  RH WIND       PRES   REMARKS
Central Park   CLEAR     65  52  62 VRB3      29.83R
Wall St Helipt PTCLDY    66  54  63 CALM      29.81S
Bronx Bot Gard   N/A     64  50  59 NW5       29.83R
LaGuardia APRT PTCLDY    65  53  65 NW12      29.80R
Kennedy INTL   PTCLDY    67  53  61 NW15G21   29.81R
Breezy Point     N/A     64 N/A N/A NW9         N/A
Newark/Liberty PTCLDY    66  53  63 NW12      29.81R
Teterboro      CLEAR     64  53  67 NW8       29.80R
$$

NYZ177-179-078>081-270500-
LONG ISLAND NEW YORK

CITY           SKY/WX    TMP DP  RH WIND       PRES   REMARKS
Jones Beach      N/A     64 N/A N/A NW12        N/A
Matinecock PT    N/A     64 N/A N/A W12         N/A
Farmingdale    CLEAR     65  53  65 NW7       29.79R
MacArthur/ISP  PTCLDY    60  57  89 N3        29.78R
Shirley        CLEAR     58  57  97 N6        29.78S
Mt Sinai Harb    N/A     57 N/A N/A NW2         N/A
Westhampton    CLEAR     60  53  77 NW7       29.79R
East Hampton     N/A     58  55  88 NW3       29.76R
Montauk          N/A     58  56  93 W3        29.77R
$$

NYZ052-065-067-270500-
HUDSON VALLEY

CITY           SKY/WX    TMP DP  RH WIND       PRES   REMARKS
White Plains   PTCLDY    63  51  65 NW10      29.78S
Larchmont Harb   N/A     64 N/A N/A W9          N/A
Croton O-T Hud   N/A     64 N/A N/A NW7         N/A
Newburgh       MOCLDY    59  54  82 W9        29.81S
Montgomery     CLEAR     61  52  72 NW7       29.81R
Poughkeepsie   CLOUDY    60  54  80 CALM      29.79R
Albany         DRIZZLE   55  51  86 NE5       29.81R
$$

NJZ001-105-106-008-010-013-015-019>022-104-270500-
NEW JERSEY

CITY           SKY/WX    TMP DP  RH WIND       PRES   REMARKS
Newark/Liberty PTCLDY    66  53  63 NW12      29.81R
Teterboro      CLEAR     64  53  67 NW8       29.80R
Caldwell       CLEAR     66  52  60 NW7       29.82R
Somerville     PTCLDY    63  56  78 NW3       29.81R
Linden           N/A     64  52  66 NW8       29.82R
Perth Amboy      N/A     64 N/A N/A NW6         N/A
Sussex         MOCLDY    60  55  83 CALM      29.85R
Andover          N/A     61  52  72 CALM      29.84R
Trenton        MOCLDY    64  56  75 W9        29.84R
Millville      PTCLDY    64  56  75 W7        29.86R
Atlantic City  NOT AVBL
Wrightstown    CLEAR     64  56  74 W12       29.82R
Toms River     CLEAR     64  55  72 W5        29.84R
Belmar         PTCLDY    64  55  72 W9        29.83R
$$

PAZ047>061-062-071-270500-
EASTERN PENNSYLVANIA

CITY           SKY/WX    TMP DP  RH WIND       PRES   REMARKS
Philadelphia   MOCLDY    67  54  63 NW14      29.86R
Allentown      MOCLDY    62  55  77 CALM      29.85S
Scranton       CLOUDY    61  56  83 W3        29.86S
$$

CTZ002-004>006-009-010-012-RIZ004-006-007-MAZ004-011-015-270500-
SOUTHERN NEW ENGLAND
 IN CT

CITY           SKY/WX    TMP DP  RH WIND       PRES   REMARKS
Bradley INTL   CLOUDY    59  52  77 NW10      29.77R
Hartford       MOCLDY    60  53  77 NW6       29.77R
Danbury        MOCLDY    57  55  93 CALM      29.80R
Wtrbury/Oxford   N/A     57  48  72 NW7       29.80R
Bridgeport     CLOUDY    64  54  69 NW6       29.78R
Meriden        PTCLDY    59  53  80 CALM      29.77R
New Haven      CLOUDY    63  52  67 VRB6      29.77R
Chester          N/A     57  55  94 NW7       29.77S
Groton         CLOUDY    60  54  80 NW7       29.75R
Wilimantic     CLEAR     59  54  83 NW5       29.77R

 IN RI

CITY           SKY/WX    TMP DP  RH WIND       PRES   REMARKS
Providence     MOCLDY    56  55  97 W3        29.75R
Block Island   CLOUDY    58  55  90 NW7       29.75R
Westerly       CLOUDY    61  56  83 VRB6      29.76R
 IN MA

CITY           SKY/WX    TMP DP  RH WIND       PRES   REMARKS
Boston         CLOUDY    55  53  93 NW5       29.75S
Worcester      CLOUDY    53  48  83 NW14      29.75R
Westfield      CLOUDY    56  53  90 W5        29.77R
Provincetown   MOCLDY    52  51  97 W5        29.74S
Nantucket      CLOUDY   N/A N/A N/A CALM      29.73R
$$

ANZ330-335-338-340-345-350-353-355-270500-
COASTAL MARINE OBSERVATIONS


STATION/POSITION TIME  SKY/WX   TEMP    WIND        PRES    VSBY  WAVE
                                AIR SEA DIR/SP/G                  HT/PER
                 (UTC)          (F)     (DEG/KT/KT) (MB)    (MI)  (FT/S)
NY HARB ENTRANCE 0350            64 57  320/ 14/ 16 1008.9          4/ 9
20 S FIRE ISLAND 0350            60 56  290/ 10/ 12 1008.3          5/ 8
GREAT SOUTH BAY  0315            64 63  350/  4/  6   N/A
23 SSW MONTAUK P 0350            57 55              1008.1          6/ 8
15 E BARNEGAT LI 0330               58                N/A           4/ 8
HUDSON CANYON    0350            59 55  270/ 12/ 16 1008.6          6/ 7
KINGS POINT      0342            64 59  350/  8/ 10 1009.0
EXECUTION ROCKS  0345            64                   N/A
CENTRAL LI SOUND NOT AVBL
EASTERN LI SOUND NOT AVBL
ROBBINS REEF     0336            67     310/ 13/ 15 1009.6
$$


>>>>>>>>>>>>>>>>>>>>>>>>>>>> KEY <<<<<<<<<<<<<<<<<<<<<<<<<<<
>                                                          <
>     SKY/WX - Sky Condition/Present Weather               <
>     TMP    - Temperature in Fahrenheit                   <
>     DP     - Dew Point in Fahrenheit                     <
>     RH     - Relative Humidity in Percent                <
>     WIND   - Direction (from) and Speed in MPH           <
>     PRES   - Mean Sea Level Pressure (inches of Hg)      <
>     WCI    - Wind Chill Index                            <
>     VSB    - VISIBILITY IN MILES                         <
>     HX     - HEAT INDEX                                  <
>     TC     - TEMPERATURE IN CELSIUS                      <
>     VRB    - VARIABLE WIND DIRECTION                     <
>                                                          <
>>>>>>>>>>>>>>>>>>>>>>>>>>>> KEY <<<<<<<<<<<<<<<<<<<<<<<<<<<




USA.gov is the U.S. government's official web portal to all federal, state and local government web resources and services.